Regional Weather Roundup
Issued by NWS New Orleans/Baton Rouge, LA

Home | Current Version | Previous Version | Text Only | Print | Product List | Glossary Off
Versions: 1 2 3 4 5 6 7 8 9 10 11 12 13 14 15 16 17 18 19 20 21 22 23 24 25 26 27 28 29 30 31 32 33 34 35 36 37 38 39 40 41 42 43 44 45 46 47 48 49 50

203
ASUS44 KLIX 210210
RWRLIX
NEW ORLEANS REGIONAL WEATHER ROUNDUP
NATIONAL WEATHER SERVICE NEW ORLEANS LA
800 PM CST SAT DEC 20 2014

NOTE: "FAIR" INDICATES FEW OR NO CLOUDS BELOW 12,000 FEET WITH NO
      SIGNIFICANT WEATHER AND/OR OBSTRUCTIONS TO VISIBILITY.
      SKY/WX - SKY CONDITION AND SIGNIFICANT WEATHER.
      TMP - AIR TEMPERATURE.     DP    - DEWPOINT TEMPERATURE.
      RH  - RELATIVE HUMIDITY.   PRES  - PRESSURE.
      HI  - HEAT INDEX.          WCI   - WIND CHILL INDEX.

*  THESE STATIONS ARE NOT NWS OR FAA STATIONS AND ARE NOT UNDER
   NWS QUALITY CONTROL.

LAZ038-040-048-061>063-065>067-069-210300-
SOUTHEAST LOUISIANA

CITY           SKY/WX    TMP DP  RH WIND       PRES   REMARKS
N.O. AUDUBON     N/A     53  50  88 MISG        N/A
N.O. INTL ARPT CLOUDY    52  47  83 NE12      30.15R
N.O. LAKEFRONT CLOUDY    54  47  77 NE20      30.15R
N.O. DOWNTOWN* CLOUDY    52  45  76 N8        30.15R
SLIDELL        CLOUDY    52  46  80 N9        30.15S
BATON ROUGE    MOCLDY    46  43  89 CALM      30.16R
BOOTHVILLE     CLOUDY    54  51  90 NE10G18   30.13R
BELLE CHASSE   CLOUDY    52  48  86 NE10      30.14R
BOGALUSA*        N/A     53  46  78 NE7       30.18S
GALLIANO*      CLOUDY    55  51  86 MISG      30.15R
NEW ROADS*       N/A     47  46  93 CALM      30.17S
GONZALES*      CLOUDY    50  50 100 N3        30.17R
HAMMOND*       NOT AVBL
HOUMA*         CLOUDY    51  49  93 N10       30.15S
PORT FOURCHON* CLOUDY    54  50  87 NE14G21   30.17R

$$

MSZ070-080>082-210300-
SOUTHERN MISSISSIPPI

CITY           SKY/WX    TMP DP  RH WIND       PRES   REMARKS
MCCOMB         MOCLDY    48  43  82 CALM      30.17R
GULFPORT       CLOUDY    51  47  86 N12       30.13F
BILOXI         MOCLDY    51  49  91 NE10      30.13F
PASCAGOULA     CLOUDY    51  48  89 N9        30.14F

$$

COASTAL OBSERVATIONS
LAKE AND NEARSHORE STATIONS

STATION/POSITION TIME  TEMP    WIND        PRES    WAVE
                       AIR SEA DIR/SP/G            HT/PER
                 (UTC) (F)     (DEG/KT/KT) (MB)    (FT/S)
PASCAGOULA       0200   51      20/ 12/ 15 1019.8
WAVELAND YACHT   0200   52      30/ 12/ 16 1019.5
GRAND ISLE       0200   54 60   40/ 12/ 16 1020.8
SOUTHWEST PASS   0200   56                 1020.0
NEW CANAL        0200   53 56   40/ 15/ 17 1021.0
SHELL BEACH      0200   53 57   20/ 15/ 17 1020.5

OFFSHORE STATIONS

STATION/POSITION TIME  TEMP    WIND        PRES    WAVE
                       AIR SEA DIR/SP/G            HT/PER
                 (UTC) (F)     (DEG/KT/KT) (MB)    (FT/S)
64 S DAUPHIN ISL 0200   62 74   40/ 19/ 23 1018.2    6/ 7

$$




USA.gov is the U.S. government's official web portal to all federal, state and local government web resources and services.